x

9410840 - Santa Monica Pier (icac1) Weather Station

12:54 - Thu 28th Jul 2016 All times are PDT. -7 hours from GMT.

  • Wind
    3mph
  • Sea Temp 69°f
  • Air Temp 69°f
  • Sea Pressure 1012.5mb
  • 9410840 - Santa Monica Pier
  • 9410840 - Santa Monica Pier

More Historic Weather Station data

Upgrade to MSW Pro to gain access to the past 30 days of data for over 8000 Wavebouys and Weather Stations around the globe.

Join Pro

Comparision Forecast

View Surf forecast
   
jeu. 07/28 12:54 3
mph
1012.5mb 69f 69f
12:48 3
mph
1012.6mb 69f 69f
12:42 1 2 mph 1012.6mb 69f 69f
12:36 2
mph
1012.5mb 69f 69f
12:30  -  1 mph 1012.4mb 70f 69f
12:24  -  1 mph 1012.4mb 70f 69f
12:18 1 2 mph 1012.4mb 70f 69f
12:12 1 2 mph 1012.5mb 70f 69f
12:06  -  2 mph 1012.6mb 70f 69f
12:00 1
mph
1012.6mb 70f 69f
mer. 07/27 11:54  -  1 mph 1012.6mb 70f 69f
11:48  -  1 mph 1012.6mb 71f 69f
11:42 1
mph
1012.6mb 71f -
11:36 1 2 mph 1012.6mb 71f -
11:30  -  1 mph 1012.6mb 71f 69f
11:24 1 2 mph 1012.6mb 71f 69f
11:18 2
mph
- - -
11:12  -  1 mph 1012.6mb 71f 69f
11:06  -  2 mph 1012.5mb 71f 69f
11:00 1 2 mph 1012.5mb 71f 69f
10:54  -  1 mph 1012.5mb 71f 69f
10:48 1 2 mph 1012.5mb 71f 69f
10:42 2 5 mph 1012.5mb 70f -
10:36 3 5 mph 1012.4mb 70f -
10:30 5
mph
1012.4mb 70f 69f
10:24 3 5 mph 1012.4mb 70f 69f
10:18 3 6 mph 1012.5mb 70f 69f
10:12 5 6 mph 1012.5mb 70f 69f
10:06 5 6 mph 1012.5mb 69f 69f
10:00 5 6 mph 1012.4mb 69f 69f
9:54 5 6 mph 1012.5mb 69f 69f
9:48 5 6 mph 1012.5mb 69f 69f
9:42 6 8 mph 1012.4mb 69f 69f
9:36 6 7 mph 1012.4mb 69f 69f
9:30 6 8 mph 1012.4mb 69f 69f
9:24 6 8 mph 1012.3mb 69f 69f
9:18 6 8 mph 1012.2mb 69f 69f
9:12 7 8 mph 1012.2mb 69f 69f
9:06 7
mph
1012.1mb 69f 69f
9:00 7 8 mph 1012mb 69f 69f
8:54 7 8 mph 1011.9mb 69f 69f
8:48 8
mph
- - -
8:42 7 8 mph 1011.8mb 69f 69f
8:36 7 8 mph 1011.8mb 69f 69f
8:30 7 9 mph 1011.7mb 70f 69f
8:24 8 9 mph 1011.7mb 70f 69f
8:18 9 10 mph - - -
8:12 9 11 mph - 71f -
8:06 9 10 mph - 71f -
8:00 8 11 mph 1011.9mb 71f -
7:54 9 10 mph 1011.9mb 71f -
7:48 10 11 mph - - -
7:42 10 13 mph - - -
7:36 9 10 mph - - -
7:30 9 11 mph - - -
7:24 9 10 mph - - -
7:18 9 10 mph - - -
7:12 8 10 mph - 73f -
7:06 8 10 mph - 73f -
7:00  -  mph - 74f -
6:54  -  mph - 74f -
6:48 8 11 mph - - -
6:42 9 11 mph - - -
6:36 9 11 mph - - -
6:30  -  mph 1011.4mb - -
6:24  -  mph 1011.5mb - -
6:18 10 13 mph - - -
6:12 11 13 mph - - -
6:06 11
mph
- - -
6:00  -  mph - 74f -
5:54  -  mph - 74f -
5:48 11 14 mph 1011.6mb - -
5:42 11 13 mph 1011.7mb - -
5:36 13
mph
1011.7mb - -
5:30  -  mph 1011.8mb 74f -
5:24  -  mph 1011.9mb 74f -
5:18  -  mph 1012mb 74f -
5:12  -  mph - 74f 71f
5:06  -  mph - 74f 71f
5:00  -  mph - 74f 71f
4:54  -  mph - 73f 71f
4:48  -  mph 1012.2mb - -
4:42  -  mph 1012.2mb - -
4:36  -  mph 1012.3mb - -
4:30 9 11 mph - 73f -
4:24 10 11 mph - 73f -
4:18  -  mph - 73f 71f
4:12  -  mph - 73f 71f
4:06  -  mph - 73f 71f
4:00  -  mph - 73f 71f
3:54  -  mph - 73f 71f
3:48  -  mph - 73f 71f
3:42  -  mph - 73f 71f
3:36  -  mph - 73f 71f
3:30 10 13 mph - - -
3:24 11 13 mph - - -
3:18 13
mph
- - -
3:12 10 13 mph 1012.9mb 73f 71f
3:06 11 13 mph 1013mb 74f 71f
3:00  -  mph - 73f -
2:54  -  mph - 73f -
2:48 10 13 mph - 73f 71f
2:42 11
mph
- 73f 70f
2:36 10
mph
- 73f 70f
2:30 9 11 mph 1013.1mb 73f 70f
2:24 8 10 mph 1013.2mb 73f 70f
2:18 9 10 mph 1013.3mb 73f 70f
2:12 9 10 mph 1013.3mb 73f 70f
2:06 9 10 mph 1013.3mb 73f 70f
2:00 10
mph
1013.3mb 73f 70f
1:54 10 11 mph 1013.3mb 73f 70f
1:48 10 11 mph 1013.2mb 73f 70f
1:42 10 11 mph 1013.2mb 73f 70f
1:36 10 13 mph 1013.2mb 73f 70f
1:30 10 11 mph 1013.3mb 72f 70f
1:24 10 11 mph 1013.3mb 72f 70f
1:18 10 11 mph 1013.3mb 72f 70f
1:12 10 11 mph 1013.4mb 72f 70f
1:06 9 10 mph 1013.5mb 72f 70f
1:00 9 10 mph 1013.5mb 71f 70f
12:54 8 9 mph 1013.5mb 71f 70f
12:48 8 9 mph 1013.6mb 71f 70f
12:42 8 9 mph 1013.6mb 71f 70f
12:36 7 8 mph 1013.6mb 71f 70f
12:30 7
mph
1013.6mb 70f 70f
12:24 6 7 mph 1013.7mb 70f 70f
12:18 6 7 mph 1013.7mb 70f 70f
12:12 6 7 mph 1013.8mb 70f 70f
12:06 6 7 mph 1013.7mb 69f 70f
12:00 7 8 mph 1013.7mb 69f 70f
11:54 7
mph
1013.7mb 69f 70f
11:48 6 7 mph 1013.8mb 69f 70f
11:42 7 8 mph 1013.8mb 69f 70f
11:36 7
mph
1013.8mb 69f 70f
11:30 6 7 mph 1013.8mb 70f 69f
11:24 6 7 mph 1013.9mb 70f 70f
11:18 6 7 mph 1014mb 70f 69f
11:12 6 7 mph 1014mb 70f 69f
11:06 6 8 mph 1013.9mb 70f 69f
11:00 7 8 mph 1013.9mb 70f 69f
10:54 7 8 mph 1014.1mb 70f 69f
10:48 7 8 mph 1014.1mb 70f 69f
10:42 6 8 mph 1014.1mb 71f 69f
10:36 7 8 mph 1014mb 71f 69f
10:30 6 7 mph 1014mb 71f 69f
10:24 7
mph
1013.9mb 71f 69f
10:18 7
mph
1013.8mb 71f 69f
10:12 6 7 mph 1013.8mb 71f 69f
10:06 6 7 mph 1013.7mb 71f 69f
10:00 7
mph
1013.7mb 71f 69f
9:54 6 7 mph 1013.6mb 71f 69f
9:48 6
mph
1013.7mb 71f 69f
9:42 6
mph
1013.6mb 71f 69f
9:36 5 6 mph 1013.5mb 71f 69f
9:30 5 6 mph 1013.5mb 71f 69f
9:24 6
mph
1013.5mb 71f 69f
9:18 5
mph
1013.4mb 71f 70f
9:12 5
mph
1013.3mb 71f 70f
9:06 3
mph
1013.4mb 71f 70f
9:00 3
mph
1013.5mb 71f 70f
8:54 3 5 mph 1013.4mb 71f 70f
8:48 5 6 mph 1013.4mb 71f 70f
8:42 5 6 mph 1013.3mb 71f 69f
8:36 6
mph
1013.3mb 71f 70f
8:30 3 5 mph 1013.3mb 71f 70f
8:24 3 5 mph 1013.2mb 71f 70f
8:18 2 3 mph 1013.3mb 71f 70f
8:12 3
mph
1013.2mb 71f 70f
8:06 2 3 mph 1013.2mb 71f 70f
8:00 2 3 mph 1013.2mb 71f 70f
7:54 2
mph
1013.2mb 71f 70f
7:48 2 3 mph 1013.2mb 71f 70f
mar. 07/26 7:24 6 7 mph 1012.5mb 71f 67f
7:18 6
mph
1012.4mb 71f 67f
7:12 5
mph
1012.4mb 71f 67f
7:06 3 5 mph 1012.4mb 71f 67f
7:00 2 5 mph 1012.4mb 71f 67f
6:54 5 7 mph 1012.4mb 71f 67f
6:48 6 7 mph 1012.3mb 71f 67f
6:42 6 8 mph 1012.3mb 71f 67f
6:36 7 9 mph 1012.3mb 71f 67f
6:30 6 8 mph 1012.5mb 71f 66f
6:24 6 7 mph 1012.5mb 71f 67f
6:18 6 7 mph 1012.6mb 71f 66f
6:12 6 8 mph 1012.5mb 71f 66f
6:06 6 7 mph 1012.5mb 71f 67f
6:00 6 7 mph 1012.6mb 71f 67f
5:54 6
mph
1012.6mb 71f 67f
5:48 5 6 mph 1012.7mb 71f 66f
5:42 6 7 mph 1012.6mb 71f 66f
5:36 6 7 mph 1012.5mb 71f 67f
5:30 6 8 mph 1012.5mb 71f 67f
5:24 6 7 mph 1012.5mb 71f 67f
5:18 6 8 mph 1012.5mb 71f 66f
5:12 6 7 mph 1012.6mb 71f 66f
5:06 5 7 mph 1012.5mb 71f 67f
5:00 5 6 mph 1012.5mb 71f 67f
4:54 5 6 mph 1012.6mb 71f 67f
4:48 6 7 mph 1012.5mb 71f 67f
4:42 6 7 mph 1012.5mb 71f 67f
4:36 6
mph
1012.5mb 71f 67f
4:30 5 6 mph 1012.5mb 71f 67f
4:24 3 6 mph 1012.7mb 71f 67f
4:18 5 6 mph 1012.6mb 71f 67f
4:12 5 6 mph 1012.6mb 71f 67f
4:06 5 6 mph 1012.6mb 71f 67f
4:00 5
mph
1012.7mb 71f 67f
3:54 5 6 mph 1012.7mb 71f 67f
3:48 5 6 mph 1012.8mb 71f 67f
3:42 3 6 mph 1012.8mb 71f 67f
3:36 3 5 mph 1012.9mb 71f 67f
3:30 2 3 mph 1012.9mb 71f 67f
3:24 2 5 mph 1012.8mb 71f 67f
3:18 3 5 mph 1012.8mb 71f 67f
3:12 3
mph
1012.9mb 71f 67f
3:06 3 5 mph 1012.9mb 71f 67f
3:00 3 5 mph 1012.8mb 71f 67f
2:54 2 3 mph 1012.9mb 71f 67f
2:48 2 3 mph 1012.9mb 71f 67f
2:42 2 5 mph 1012.8mb 71f 67f
2:36 2 3 mph 1012.8mb 71f 67f
2:30 2 5 mph 1012.8mb 71f 67f
2:24 3 5 mph 1012.8mb 71f 67f
2:18 3
mph
1012.9mb 71f 67f
2:12 2 3 mph 1012.9mb 71f 67f
2:06 2 3 mph 1012.9mb 71f 67f
2:00 2 3 mph 1012.9mb 72f 67f
1:54 1 2 mph 1013mb 72f 67f
1:48 2 3 mph 1013mb 72f 67f
1:42 2 3 mph 1013mb 72f 67f
1:36 2 3 mph 1013mb 72f 67f
1:30 1 2 mph 1013mb 72f 67f
1:24 2 3 mph 1013.1mb 72f 67f
1:18 1 3 mph 1013.1mb 72f 67f
1:12 3 5 mph 1013.1mb 72f 67f
1:06 5 6 mph 1013mb 72f 67f
1:00 2 5 mph 1013.2mb 72f 67f
12:54 3 5 mph 1013.2mb 72f 67f
12:48 3 5 mph 1013.3mb 72f 67f
12:42 3 5 mph 1013.2mb 72f 67f
12:36 5 6 mph 1013.3mb 72f 67f
12:30 5 6 mph 1013.3mb 72f 67f
12:24 3 6 mph 1013.3mb 72f 67f
12:18 5 6 mph 1013.4mb 72f 67f
12:12 5 6 mph 1013.4mb 72f 67f
12:06 5 6 mph 1013.4mb 72f 67f
12:00 5 6 mph 1013.4mb 72f 67f
lun. 07/25 11:54 6 8 mph 1013.4mb 71f 67f
11:48 6
mph
1013.4mb 71f 67f
11:42 5 6 mph 1013.4mb 71f 67f
11:36 6 7 mph 1013.4mb 71f 67f
11:30 6 7 mph 1013.4mb 71f 67f
11:24 7
mph
1013.4mb 71f 67f
11:18 6 7 mph 1013.3mb 71f 67f
11:12 5 7 mph 1013.3mb 71f 67f
11:06 6 8 mph 1013.2mb 71f 67f
11:00 7 8 mph 1013.1mb 71f 67f
10:54 6 7 mph 1013.1mb 71f 67f
10:48 6 7 mph 1013.1mb 71f 67f
10:42 6 7 mph 1013.2mb 71f -
10:36 6 8 mph 1013.2mb 71f -
10:30 7 8 mph 1013.2mb 71f 66f
10:24 6 8 mph 1013.2mb 71f 66f
10:18 6 9 mph 1013.3mb 71f 66f
10:12 7 8 mph 1013.3mb 71f 66f
10:06 6 9 mph 1013.3mb 71f 67f
10:00 6 8 mph 1013.3mb 71f 67f
9:54 7 9 mph 1013.3mb 71f 67f
9:48 8 9 mph 1013.3mb 71f 67f
9:42 8 10 mph 1013.2mb 72f 67f
9:36 8 9 mph 1013.2mb 72f 67f
9:30 8 10 mph 1013.1mb 72f 67f
9:24 9 11 mph 1013mb 72f 67f
9:18 9 10 mph 1013mb 72f 67f
9:12 9 10 mph 1013mb 72f 68f
9:06 9 10 mph 1012.9mb 72f 68f
9:00 9 10 mph 1012.9mb 72f 68f
8:54 9 10 mph 1012.9mb 72f 68f
8:48 9 10 mph - - -
8:42 10 11 mph 1012.7mb 72f 69f
8:36 10 11 mph 1012.7mb 72f 69f
8:30 10 11 mph 1012.6mb 72f 69f
8:24 11 13 mph 1012.5mb 72f 69f
8:18 10 14 mph 1012.5mb - -
8:12 13 14 mph 1012.4mb 72f 69f
8:06 10 13 mph 1012.4mb 72f 69f
8:00 10 11 mph - 72f 69f
7:54 9 10 mph - 72f 69f
7:48 9 10 mph 1012.1mb - -
7:42 8 10 mph 1012.1mb - -
7:36 9 13 mph 1011.9mb - -
7:30 8 13 mph - 73f 70f
7:24 10 11 mph - 73f 70f
7:18 9 10 mph - - -
7:12 8 10 mph - 73f 70f
7:06 7 9 mph - 73f 71f
7:00 8 10 mph - 73f 71f
6:54 9 14 mph - 73f 70f
6:48 10 13 mph 1011.4mb - -
6:42 13 14 mph 1011.4mb 73f -
6:36 11 15 mph 1011.3mb 73f -
6:30 11 14 mph - 73f -
6:24 13 16 mph - 73f -
6:18 14 16 mph - - -
6:12 13 16 mph - 72f 71f
6:06 14 15 mph - 72f 71f
6:00 13 15 mph - 72f 71f
5:54 13 14 mph - 72f 71f
5:48 14 15 mph - - -
5:42 13 15 mph - - -
5:36 11 14 mph - - -
5:30 11 14 mph - 72f 71f
5:24 13 14 mph - 72f 71f
5:18 13 14 mph - - -
5:12 13 15 mph - 72f -
5:06 14 16 mph - 72f -
5:00  -  mph - 72f 71f
4:54  -  mph - 72f 71f
4:48 13 15 mph 1011.9mb - -
4:42 13 14 mph 1011.9mb - -
4:36 13 14 mph 1011.9mb - -
4:30  -  mph - 72f -
4:24  -  mph - 72f -
4:18 13 14 mph 1012.3mb - -
4:12 11 14 mph 1012.2mb 72f -
4:06 10 13 mph 1012.4mb 72f -
4:00  -  mph - 72f 71f
3:54  -  mph - 72f 71f
3:48 11 13 mph 1012.4mb - -
3:42 10 13 mph 1012.4mb 72f -
3:36 11 14 mph 1012.4mb 72f -
3:30 10 13 mph 1012.5mb 73f -
3:24 9 11 mph 1012.6mb 73f -
3:18 9 10 mph - - -
3:12 8 10 mph - 73f 72f
3:06 8 10 mph - 73f 72f
3:00  -  mph - 73f -
2:54  -  mph - 73f -
2:48  -  mph - 73f -
2:42  -  mph - 73f 72f
2:36  -  mph - 73f 72f
2:30 7 8 mph 1013mb 73f 72f
2:24 6 8 mph 1013.1mb 73f 72f
2:18 7 9 mph 1013.3mb 73f 71f
2:12 7 9 mph 1013.3mb 73f 72f
2:06 8 9 mph 1013.4mb 73f 72f
2:00 9 10 mph 1013.4mb 73f 71f
1:54 9 10 mph 1013.5mb 73f 71f
1:48 8 10 mph 1013.6mb 73f 71f
1:42 9 10 mph 1013.8mb 73f 71f
1:36 9 10 mph 1013.8mb 73f 71f
1:30 9 10 mph 1013.9mb 73f 71f
1:24 9 10 mph 1014mb 73f 71f
1:18 8 9 mph 1014.3mb 73f 71f
1:12 7 8 mph 1014.4mb 73f 71f
1:06 7 8 mph 1014.6mb 73f 71f
1:00 6 7 mph 1014.7mb 73f 71f
12:54 6 7 mph 1014.7mb 73f 71f
12:48 6 7 mph 1014.7mb 73f 71f
12:42 7
mph
1014.8mb 73f 71f
12:36 7
mph
1014.9mb 73f 71f
12:30 7
mph
1015mb 73f 71f
12:24 7 8 mph 1014.9mb 73f 71f
12:18 7 8 mph 1014.9mb 73f 71f
12:12 7 8 mph 1014.9mb 72f 71f
12:06 7 8 mph 1015mb 72f 71f
12:00 7 8 mph 1015mb 72f 71f
11:54 6 7 mph 1015mb 72f 71f
11:48 6 7 mph 1015mb 72f 71f
11:42 6
mph
1015mb 72f 70f
11:36 6 7 mph 1015mb 72f 70f
11:30 6 7 mph 1015.1mb 71f 70f
11:24 6 7 mph 1015.1mb 71f 70f
11:18 6
mph
1015.1mb 70f 70f
11:12 6
mph
1015.2mb 70f 70f
11:06 6
mph
1015.2mb 70f 70f
11:00 5 6 mph 1015.3mb 70f 70f
10:54 5 6 mph 1015.3mb 70f 70f
10:48 6
mph
1015.3mb 70f 70f
10:42 5 6 mph 1015.3mb 70f 70f
10:36 5 6 mph 1015.3mb 70f 70f
10:30 5
mph
1015.3mb 70f 70f
10:24 3 5 mph 1015.3mb 70f 70f
10:18 5
mph
1015.4mb 70f 70f
10:12 3 5 mph 1015.4mb 70f 70f
10:06 3 5 mph 1015.4mb 71f 71f
10:00 3 5 mph 1015.4mb 71f 70f
9:54 5
mph
1015.4mb 71f 70f
9:48 5
mph
1015.4mb 71f 70f
9:42 3 5 mph 1015.4mb 71f 70f
9:36 3 5 mph 1015.4mb 71f 70f
9:30 3 5 mph 1015.4mb 71f 70f
9:24 3
mph
1015.3mb 71f 70f
9:18 3
mph
1015.4mb 71f 70f
9:12 3
mph
1015.4mb 71f 70f
9:06 3
mph
1015.4mb 71f 70f
9:00 3
mph
1015.4mb 71f 70f
8:54 3
mph
1015.4mb 71f 70f
8:48 3
mph
1015.4mb 71f 70f
8:42 3
mph
1015.3mb 71f 71f
8:36 2 3 mph 1015.3mb 71f 70f
8:30 3
mph
1015.2mb 71f 70f
8:24 2 3 mph 1015.2mb 71f 70f
8:18 3
mph
1015.1mb 71f 70f
8:12 3
mph
1015.1mb 71f 70f
8:06 3
mph
1015mb 71f 70f
8:00 3
mph
1014.9mb 71f 70f
7:54 2 3 mph 1014.8mb 71f 70f
7:48 2 3 mph 1014.8mb 71f 70f
7:42 3 5 mph 1014.6mb 71f 70f
7:36 3 5 mph 1014.6mb 71f 70f
7:30 3 5 mph 1014.4mb 71f 70f
7:24 3 5 mph 1014.3mb 71f 70f
7:18 3 5 mph 1014.2mb 71f 70f
7:12 2 3 mph 1014.1mb 71f 70f
7:06 2 3 mph 1014.1mb 71f 70f
7:00 2 3 mph 1014mb 71f 69f
6:54 2 3 mph 1014mb 71f 69f
6:48 2
mph
- - -
6:42 2 3 mph 1013.8mb 71f 69f
6:36 2
mph
1013.7mb 71f 69f
6:30 2
mph
1013.7mb 71f 69f
6:24 2
mph
1013.7mb 71f 69f
6:18 2 3 mph 1013.7mb 71f 68f
6:12 2
mph
1013.5mb 71f 68f
6:06 2 3 mph 1013.5mb 71f 68f
6:00 3 6 mph 1013.5mb 71f 68f
5:54 5
mph
1013.4mb 71f 67f
5:48 5 6 mph 1013.4mb 71f 67f
5:42 5 6 mph 1013.3mb 71f 67f
5:36 5 6 mph 1013.3mb 71f 67f
5:30 5
mph
1013.4mb 71f 67f
5:24 3 5 mph 1013.4mb 71f 67f
5:18 3 5 mph 1013.4mb 70f 67f
5:12 3 5 mph 1013.3mb 70f 67f
5:06 3
mph
1013.3mb 70f 68f
5:00 2 3 mph 1013.3mb 70f 68f
4:54 2
mph
1013.2mb 70f 69f
4:48 2
mph
1013.1mb 70f 69f
4:42 2
mph
1013.1mb 70f 69f
4:36 2
mph
1013.1mb 70f 69f
4:30 2
mph
1013.1mb 70f 69f
4:24 2
mph
1013.1mb 70f 68f
4:18 1 2 mph 1013.1mb 70f 68f
4:12 2 3 mph 1013.1mb 70f 68f
4:06 2 3 mph 1013mb 70f 69f
4:00 2 3 mph 1013.1mb 70f 69f
3:54 1 2 mph 1013.1mb 70f 68f
3:48 2
mph
1013.1mb 70f 68f
3:42 1
mph
1013.1mb 70f 68f
3:36  -  1 mph 1013.2mb 70f 68f
3:30  -  1 mph 1013.2mb 70f 69f
3:24  -  1 mph 1013.3mb 70f 69f
3:18 2 3 mph 1013.3mb 70f 69f
3:12 2
mph
1013.4mb 70f 69f
3:06 1 2 mph 1013.3mb 69f 69f
3:00 1 2 mph 1013.4mb 69f 69f
2:54  -  1 mph 1013.4mb 69f 69f
2:48  -  1 mph 1013.4mb 69f 69f
2:42 1
mph
1013.4mb 69f 69f
2:36 1
mph
1013.4mb 69f 69f
2:30 1 2 mph 1013.3mb 69f 69f
2:24 1 2 mph 1013.3mb 70f 69f
2:18 1 2 mph 1013.3mb 70f 69f
2:12 2
mph
1013.3mb 70f 69f
2:06 1 2 mph 1013.3mb 70f 69f
2:00 1 2 mph 1013.3mb 70f 69f
1:54 2
mph
1013.3mb 70f 69f
1:48 2 3 mph 1013.2mb 70f 69f
1:42 3
mph
1013.2mb 70f 69f
1:36 2 3 mph 1013.2mb 70f 69f
1:30 2 3 mph 1013.2mb 70f 69f
1:24 2 3 mph 1013.2mb 70f 69f
1:18 2 3 mph 1013.2mb 70f 69f
1:12 3
mph
1013.3mb 70f 69f
1:06 2 3 mph 1013.2mb 70f 69f
1:00 2 3 mph 1013.3mb 70f 69f
12:54 2 3 mph 1013.3mb 70f 69f
12:48 1 2 mph 1013.3mb 70f 69f
12:42 1 2 mph 1013.3mb 70f 69f
12:36 2
mph
1013.3mb 70f 69f
12:30 2 3 mph 1013.3mb 70f 69f
12:24 2 5 mph 1013.3mb 70f 69f
12:18 5
mph
1013.3mb 70f 69f
12:12 5 6 mph 1013.4mb 70f 69f
12:06 5
mph
1013.3mb 70f 69f
12:00 3 5 mph 1013.3mb 70f 69f
dim. 07/24 11:54 3 5 mph 1013.3mb 70f 69f
11:48 5 6 mph - - -
11:42 5
mph
1013.3mb 69f 69f
11:36 6
mph
1013.3mb 69f 69f
11:30 5 6 mph 1013.3mb 69f 69f
11:24 5 6 mph 1013.3mb 70f 69f
11:18 5 6 mph 1013.3mb 69f 69f
11:12 5 6 mph 1013.3mb 69f 69f
11:06 3 5 mph 1013.3mb 69f 69f
11:00 3
mph
1013.2mb 69f 70f
10:54 3
mph
1013.3mb 69f 70f
10:48 2 3 mph 1013.3mb 69f 70f
10:42 2 3 mph 1013.3mb - -
10:36 3
mph
1013.3mb - -
10:30 3 5 mph 1013.2mb 69f 70f
10:24 3
mph
1013.2mb 69f 70f
10:18 3 5 mph 1013.2mb 69f 70f
10:12 5
mph
1013.1mb 69f 70f
10:06 5 6 mph 1013.1mb 69f 70f
10:00 5 6 mph 1013.1mb 69f 70f
9:54 5 6 mph 1013.1mb 68f 70f
9:48 5 6 mph 1013mb 68f 70f
9:42 5 6 mph 1013mb 69f 70f
9:36 5
mph
1012.9mb 69f 70f
9:30 5
mph
1012.9mb 69f 70f
9:24 5
mph
1012.8mb 69f 70f
9:18 5 6 mph 1012.7mb 69f 70f
9:12 5
mph
1012.6mb 69f 70f
9:06 5
mph
1012.5mb 69f 70f
9:00 5 6 mph 1012.5mb 69f 70f
8:54 6
mph
1012.4mb 69f 70f
8:48 6 7 mph - - -
8:42 6 7 mph 1012.3mb 69f 70f
8:36 6 7 mph 1012.3mb 69f 70f
8:30 6 7 mph 1012.3mb 69f 70f
8:24 6 7 mph 1012.3mb 69f 70f
8:18 6 7 mph - - -
8:12 6 7 mph - 69f 70f
8:06 6
mph
- 69f 70f
8:00  -  mph 1012.3mb 69f -
7:54  -  mph 1012.3mb 69f -
7:48 5 6 mph 1012.2mb - -
7:42 6 7 mph 1012.2mb 69f -
7:36 6 7 mph 1012.1mb 69f -
7:30 6 7 mph - 69f -
7:24 6 7 mph - 70f -
7:18 7
mph
1012mb - -
7:12 7
mph
1011.8mb 70f 71f
7:06 7 8 mph 1011.8mb 70f 71f
7:00  -  mph - 70f 71f
6:54  -  mph - 70f 71f
6:48 8 9 mph - - -
6:42 9
mph
- 70f -
6:36 8
mph
- 70f -
6:30 7 8 mph 1011.8mb 71f -
6:24 7 8 mph 1011.8mb 70f -
6:18 7 8 mph 1011.8mb 70f -
6:12 7 8 mph 1011.7mb 71f -
6:06 8
mph
1011.7mb 71f -
6:00 7 8 mph - 71f 72f
5:54 7
mph
- 71f 72f
5:48 7
mph
1011.9mb - -
5:42 7
mph
1011.9mb 71f -
5:36 6 7 mph 1011.9mb 71f -
5:30 6
mph
- - -
5:24 6
mph
- - -
5:18 6 7 mph - - -
5:12 5 6 mph - 70f 72f
5:06 5 6 mph - 69f 72f
5:00  -  mph - 69f 72f
4:54  -  mph - 69f 72f
4:48 6
mph
- - -
4:42 6 7 mph - - -
4:36 6
mph
- - -
4:30 6
mph
- 68f -
4:24 6 7 mph - 68f -
4:18 6 7 mph - - -
4:12 6 7 mph - 68f -
4:06 6 7 mph - 68f -
4:00  -  mph - 69f 72f
3:54  -  mph - 69f 72f
3:48 6 7 mph - - -
3:42 6 7 mph - - -
3:36 6 7 mph - - -
3:30 6 7 mph - 68f -
3:24 6 7 mph - 69f -
3:18 6 7 mph - - -
3:12 6 7 mph 1013mb 69f 71f
3:06 7 8 mph 1013.1mb 69f 72f
3:00  -  mph - 70f 71f
2:54  -  mph - 70f 71f
2:48 8
mph
- 70f 71f
2:42 7 8 mph - 70f 71f
2:36 7 8 mph - 69f 71f
2:30 7 8 mph 1013.5mb 69f 71f
2:24 7 8 mph 1013.4mb 69f 71f
2:18 7 9 mph 1013.4mb 69f 71f
2:12 8 9 mph 1013.4mb 69f 71f
2:06 7 8 mph 1013.6mb 69f 71f
2:00 7 8 mph 1013.6mb 69f 71f
1:54 8 9 mph 1013.7mb 69f 71f
1:48 8 9 mph 1013.6mb 69f 71f
1:42 8 9 mph 1013.6mb 69f 71f
1:36 8
mph
1013.7mb 70f 71f
1:30 8
mph
1013.7mb 70f 71f
1:24 7 8 mph 1013.7mb 70f 71f
1:18 8
mph
1013.7mb 70f 71f
1:12 8
mph
1013.7mb 70f 71f
1:06 8
mph
1013.7mb 70f 71f
1:00 7 8 mph 1013.7mb 70f 71f
12:54 8
mph
1013.7mb 70f 71f
12:48 8
mph
1013.8mb 70f 71f
12:42 8
mph
1013.8mb 70f 71f
12:36 8
mph
1013.8mb 70f 71f
12:30 8 9 mph 1013.9mb 70f 71f
12:24 8
mph
1013.9mb 70f 71f
12:18 8
mph
1013.9mb 70f 71f
12:12 7
mph
1014mb 70f 71f
12:06 6 7 mph 1014mb 70f 71f
12:00 6 7 mph 1014mb 70f 71f
11:54 6 7 mph 1014mb 70f 71f
11:48 6 7 mph 1014mb 70f 71f
11:42 7
mph
1014mb 70f 71f
11:36 6 7 mph 1014mb 69f 71f
11:30 7 8 mph 1013.9mb 69f 71f
11:24 7 8 mph 1013.9mb 69f 71f
11:18 7 8 mph 1013.9mb 69f 71f
11:12 7
mph
1013.9mb 69f 70f
11:06 6 7 mph 1014mb 69f 70f
11:00 6 7 mph 1013.9mb 69f 70f
10:54 6
mph
1013.9mb 68f 70f
10:48 6 7 mph - - -
10:42 6
mph
1013.8mb 68f 70f
10:36 6
mph
1013.7mb 67f 70f
10:30 6 7 mph 1013.6mb 67f 70f
10:24 6
mph
1013.6mb 67f 70f
10:18 5 6 mph 1013.6mb 67f 70f
10:12 6 7 mph 1013.5mb 66f 70f
10:06 7
mph
1013.4mb 66f 70f
10:00 6 7 mph 1013.3mb 65f 69f
9:54 6 7 mph 1013.2mb 65f 69f
9:48 6 7 mph 1013.2mb 65f 70f
9:42 5 6 mph 1013.1mb 65f 69f
9:36 5 6 mph 1013.1mb 65f 69f
9:30 5 6 mph 1013mb 65f 69f
9:24 5 7 mph 1012.8mb 65f 69f
9:18 5 6 mph 1012.7mb 65f 69f
9:12 3 5 mph 1012.6mb 65f 70f
9:06 2 3 mph 1012.5mb 65f 70f
9:00 2 3 mph 1012.5mb 66f 70f